Regional Weather Roundup
Issued by NWS

Home | Current Version | Previous Version | Graphics & Text | Print | Product List | Glossary On
Versions: 1 2 3 4 5 6 7 8 9 10 11 12 13 14 15 16 17 18 19 20 21 22 23 24 25 26 27 28 29 30 31 32 33 34 35 36 37 38 39 40 41 42 43 44 45 46 47 48 49 50
000
ASUS43 KLMK 271402
RWRKY
KENTUCKY REGIONAL WEATHER ROUNDUP
NATIONAL WEATHER SERVICE LOUISVILLE KY
1000 AM EDT WED AUG 27 2014

NOTE "FAIR" INDICATES FEW OR NO CLOUDS BELOW 12,000 FEET
WITH NO SIGNIFICANT WEATHER AND/OR OBSTRUCTIONS TO VISIBILITY.

KYZ001>023-026-027-061>063-070>075-271500-
WESTERN AND SOUTH CENTRAL KENTUCKY

CITY           SKY/WX    TMP DP  RH WIND       PRES   REMARKS
PADUCAH        SUNNY     84  74  71 CALM      30.09R HX  91
HENDERSON      SUNNY    N/A N/A N/A MISG        N/A
OWENSBORO      SUNNY     83  76  79 CALM      30.10S HX  91
HOPKINSVILLE   SUNNY     82  77  85 NW3       30.10S
BOWLING GREEN  MOSUNNY   78  74  87 CALM      30.11S
GLASGOW        SUNNY     78  69  73 CALM      30.11S
$$

KYZ024-025-028>034-038-045-046-053-271500-
NORTH CENTRAL KENTUCKY

CITY           SKY/WX    TMP DP  RH WIND       PRES   REMARKS
LOUISVILLE/SDF MOSUNNY   82  70  66 CALM      30.10S
LOUISVILLE/LOU SUNNY     81  71  71 SW3       30.10F
FORT KNOX      SUNNY     80  69  69 CALM      30.10F
$$

KYZ035>037-039>044-047>052-055>060-089>105-271500-
NORTHEAST KENTUCKY

CITY           SKY/WX    TMP DP  RH WIND       PRES   REMARKS
LEXINGTON      SUNNY     79  66  64 CALM      30.13F
COVINGTON      PTSUNNY   81  72  74 CALM      30.10F
FRANKFORT      SUNNY     78  68  71 SW3       30.11S
$$

KYZ054-064>069-076>088-106>120-271500-
SOUTHEAST KENTUCKY

CITY           SKY/WX    TMP DP  RH WIND       PRES   REMARKS
JACKSON        SUNNY     71  63  75 CALM      30.15S
LONDON         SUNNY     73  65  75 CALM      30.15S
SOMERSET       SUNNY     72  68  88 CALM      30.15R
MIDDLESBORO    CLOUDY    64  63  97 CALM      30.17S
MONTICELLO     SUNNY     75  68  79 CALM      30.15S
$$




USA.gov is the U.S. government's official web portal to all federal, state and local government web resources and services.